Regional Weather Roundup
Issued by NWS

Home | Current Version | Previous Version | Graphics & Text | Print | Product List | Glossary On
Versions: 1 2 3 4 5 6 7 8 9 10 11 12 13 14 15 16 17 18 19 20 21 22 23 24 25 26 27 28 29 30 31 32 33 34 35 36 37 38 39 40 41 42 43 44 45 46 47 48 49 50
000
ASUS45 KTFX 220119
RWRMT
MONTANA HOURLY WEATHER ROUNDUP
NATIONAL WEATHER SERVICE GREAT FALLS MT
719 PM MDT TUE OCT 21 2014

NOTE: "FAIR" INDICATES FEW OR NO CLOUDS BELOW 12000 FEET WITH NO
SIGNIFICANT WEATHER AND/OR OBSTRUCTIONS TO VISIBILITY.

* THESE STATIONS ARE NOT UNDER NWS QUALITY CONTROL. THEY DO NOT
   REPORT WEATHER SUCH AS PRECIPITATION OR FOG.

MTZ001>007-043-220200-
WEST OF THE DIVIDE
CITY           SKY/WX    TMP DP  RH WIND       PRES   REMARKS
KALISPELL      CLOUDY    48  43  83 S8        29.92R
MISSOULA       MOCLDY    46  45  96 N5        30.00R
BUTTE          CLOUDY    39  36  89 CALM      29.99R
MULLAN PASS    CLOUDY    36  34  92 VRB5      29.99R WCI  32
* ESSEX        N/A       43  41  93 SE1        N/A
* LINCOLN      N/A       41  38  89 SW5G12     N/A
* POLSON       N/A       44  40  86 SE1        N/A
* RONAN APT    MOCLDY    46  43  89 N/A        N/A
* SEELEY LAKE  N/A       44  42  93 N/A        N/A
* THOMP F APT  PTCLDY    40  30  68 N4G14      N/A
$$

MTZ008-052>055-220200-
SOUTHWEST MONTANA
CITY           SKY/WX    TMP DP  RH WIND       PRES   REMARKS
BOZEMAN        LGT RAIN  43  37  79 SW6       30.00R
DILLON         LGT RAIN  41  36  82 SW9       30.00R
W YELLOWSTONE  CLOUDY    32  32 100 SW3       30.05R
* THREE FORKS  CLOUDY    43 -38   2 N/A        N/A
* BOULDER HILL N/A       38  33  82 S3         N/A
* MONIDA PASS  N/A       36  34  92 N/A        N/A
* RAYNOLDS PAS N/A       34  11  38 S2         N/A
* WHITEHALL    N/A       43  38  83 SW12G19    N/A
* WISE RIVER   N/A       41  33  73 W11G22     N/A
$$

MTZ009>010-012-014-046-048-049-054-220200-
EAST SLOPES AND CENTRAL MONTANA
CITY           SKY/WX    TMP DP  RH WIND       PRES   REMARKS
CUT BANK       CLOUDY    46  39  77 W15       29.79R
GREAT FALLS    LGT RAIN  45  43  93 S10       29.84R
HELENA         CLOUDY    48  37  66 W16G22    29.93R
MALMSTROM AFB  LGT RAIN  45  43  93 SW12      29.86R
* CONRAD       CLOUDY    46  45  96 SW6        N/A
* DEARBORN     N/A       47  40  77 E1G9       N/A
* EAST GLACIER N/A       44  34  68 W19G39     N/A
* MONARCH      N/A       38  34  86 W10        N/A   WCI  31
* PENDROY      N/A       45  38  77 W10        N/A
* ROGERS PASS  N/A       38  36  93 SE13G25    N/A   WCI  30
* SAINT MARY   N/A       47  33  58 S8G21      N/A
* SWEET GRASS  N/A       48  44  86 S12G18     N/A
* WHITE SULPH  N/A       39  35  86 S3G16      N/A
$$

MTZ011-013-016-021-035-040-045-047-050-051-220200-
NORTH CENTRAL MONTANA
CITY           SKY/WX    TMP DP  RH WIND       PRES   REMARKS
HAVRE          CLOUDY    52  46  80 SW9       29.75R
LEWISTOWN      CLOUDY    46  43  89 W13G21    29.84R
* CHINOOK      MOCLDY    52  48  86 SW14      29.73R
* FORT BENTON  CLOUDY    48  45  89 SW13      29.84R
* CHESTER      N/A       48  45  89 W7G12      N/A
* DENTON       N/A       47  42  83 W20G30     N/A
* GEYSER       N/A       42  40  93 W19G24     N/A
* JUDITH GAP   N/A       46  39  77 W14G24     N/A
* LOMA         N/A       49  47  93 SW14G19    N/A
$$

MTZ017>020-022>027-061-062-220200-
NORTHEAST MONTANA
CITY           SKY/WX    TMP DP  RH WIND       PRES   REMARKS
GLASGOW        CLOUDY    63  43  48 W17       29.64R
GLENDIVE       PTCLDY    57  43  60 SW7       29.63R
JORDAN         CLOUDY    63  43  48 NW13      29.65R
SIDNEY         PTCLDY    57  43  60 CALM      29.60R
WOLF POINT     PTCLDY    59  45  60 NW5       29.58R
* BEAVER HILL  N/A       63  40  43 S8         N/A
* CIRCLE       N/A       68  48  49 N2         N/A
* LINDSAY DVD  N/A       59  43  56 S5         N/A
* NAVAJO       N/A       60  43  54 S4         N/A
$$

MTZ028>042-056>058-220200-
SOUTHCENTRAL AND SOUTHEAST MONTANA
CITY           SKY/WX    TMP DP  RH WIND       PRES   REMARKS
BAKER          PTCLDY    61  39  44 N5        29.64R
BILLINGS       CLOUDY    61  18  19 W25G37    29.77R
LIVINGSTON     CLOUDY    45  36  71 W24G35    29.92R
MILES CITY     LGT RAIN  70  39  32 NW9       29.64R
* LAUREL APT   CLOUDY    61  19  20 SW24G33    N/A
* ROUNDUP APT  CLOUDY    57  34  42 W21G32     N/A
* ALZADA       N/A       61  39  44 SE4        N/A
* HYSHAM       N/A       64  33  31 W1         N/A
* LAME DEER    N/A       66  35  32 W9         N/A
* REED POINT   N/A       52  25  35 W30G43     N/A
* ROSCOE HILL  N/A       51  14  23 SW19G43    N/A
$$

REGIONAL REPORTS...DAKOTAS
CITY           SKY/WX    TMP DP  RH WIND       PRES   REMARKS
WILLISTON      HAZE      54  43  67 N3        29.57S
DICKINSON      CLEAR     61  45  56 S10       29.61R
BEACH          N/A       54  39  57 SE3       29.63R
CROSBY         CLEAR     55  41  59 CALM      29.60R
TIOGA          CLEAR     54  45  72 SE7       29.62S
BISMARCK       CLEAR     72  45  38 SE18      29.67R
GRAND FORKS    CLEAR     57  41  55 SE25G32   29.85R
FARGO          CLEAR     59  41  51 SE24G38   29.90S
BUFFALO SD     PTCLDY    66  41  40 S13       29.60R
RAPID CITY     PTCLDY    68  46  45 S12       29.74R
$$

REGIONAL REPORTS...WYOMING/IDAHO/WASHINGTON
CITY           SKY/WX    TMP DP  RH WIND       PRES   REMARKS
GILLETTE       CLOUDY    66  36  33 SW15      29.75R
SHERIDAN       MOCLDY    70  34  27 W15       29.72R
CODY           PTCLDY   N/A N/A N/A W15G23    29.91R
YELLOWSTONE LA PTCLDY    36  27  70 CALM      30.07R
SALMON         MOCLDY   N/A N/A N/A N/A        N/A
MULLAN PASS    CLOUDY    36  34  92 VRB5      29.99S WCI  32
SAND POINT     MOCLDY    50  45  83 CALM      29.95R
SPOKANE        PTCLDY    54  43  67 S9        29.96R
$$

REGIONAL REPORTS...ALBERTA
CITY           SKY/WX    TMP DP  RH WIND       PRES   REMARKS
CALGARY        MOCLDY    54  28  37 W5        29.72R
LETHBRIDGE     MOCLDY    54  34  47 W24G33    29.73R
MEDICINE HAT   LGT RAIN  52  48  86 S12G17    29.70R
EDMONTON       MOCLDY    50  37  61 SW3       29.68R
WATERTON GATE  N/A       48  32  54 SW17G26    N/A
CARDSTON       N/A       50  34  54 W12G18     N/A
MILK RIVER     N/A       50  41  71 W14        N/A
$$

REGIONAL REPORTS...SASKATCHEWAN
CITY           SKY/WX    TMP DP  RH WIND       PRES   REMARKS
SWIFT CURRENT  MOCLDY    57  39  51 W10       29.59R
REGINA         MOCLDY    59  45  60 SE14G22   29.57S
VAL MARIE      N/A       55  41  59 W12        N/A
ASSINIBOIA     N/A       55  41  59 W6         N/A
CORONACH       N/A       54  41  62 W5         N/A

$$




USA.gov is the U.S. government's official web portal to all federal, state and local government web resources and services.